Vicksburg, LA

8:51 PM CDT on July 25, 2017 (GMT -0500)
Vicksburg Tallulah Regional

Weather History for KTVR - February, 2013

Change the Weather History Date:

Saturday, February 23, 2013

  Actual Average Record
Temperature  
Mean Temperature 47 °F 52 °F  
Max Temperature 56 °F 63 °F 83 °F (1980)
Min Temperature 38 °F 41 °F 22 °F (1964)
Degree Days  
Heating Degree Days 18 13  
Month to date heating degree days 315 368  
Since 1 July heating degree days 1702 1912  
Cooling Degree Days 0 0  
Month to date cooling degree days 0 0  
Year to date cooling degree days 18 3  
Moisture  
Dew Point 40 °F    
Average Humidity 74    
Maximum Humidity 93    
Minimum Humidity 55    
Precipitation  
Precipitation 0.00 in 0.18 in 1.28 in (2004)
Month to date precipitation 8.31 4.36  
Year to date precipitation 21.59 9.43  
Sea Level Pressure  
Sea Level Pressure 30.02 in    
Wind  
Wind Speed 7 mph (NNE)    
Max Wind Speed 14 mph    
Max Gust Speed 22 mph    
Visibility 9 miles    
Events      
T = Trace of Precipitation, MM = Missing Value Source: NWS Daily Summary

Daily Weather History Graph

Daily Weather History Graph

Search for Another Location

Airport or City:

Trip Planner

Search our weather history database for the weather conditions in past years. The results will help you decide how hot, cold, wet, or windy it might be!

Date:

Astronomy

Feb. 23, 2013 Rise Set
Actual Time 6:38 AM CST 5:57 PM CST
Civil Twilight 6:13 AM CST 6:21 PM CST
Nautical Twilight 5:44 AM CST 6:50 PM CST
Astronomical Twilight 5:16 AM CST 7:18 PM CST
Moon 4:10 PM CST (2/23) 4:56 AM CST (2/23)
Length of Visible Light 12h 08m
Length of Day
11h 18m
Waxing Gibbous, 95% of the Moon is Illuminated
Feb 23
Waxing Gibbous
Feb 25
Full
Mar 4
Last Quarter
Mar 11
New
Mar 19
First Quarter

Hourly Weather History & Observations

Time (CST) Temp. Windchill Dew Point Humidity Pressure Visibility Wind Dir Wind Speed Gust Speed Precip Events Conditions
12:53 AM 46.9 °F - 42.1 °F 83% 30.05 in 10.0 mi North 10.4 mph - N/A   Mostly Cloudy
1:53 AM 46.9 °F - 41.0 °F 80% 30.05 in 10.0 mi North 9.2 mph - N/A   Mostly Cloudy
2:53 AM 46.0 °F 42.5 °F 41.0 °F 83% 30.01 in 10.0 mi NNE 6.9 mph - N/A   Clear
3:53 AM 45.0 °F 41.8 °F 41.0 °F 86% 30.01 in 10.0 mi North 5.8 mph - N/A   Clear
4:53 AM 43.0 °F 40.3 °F 39.9 °F 89% 30.01 in 10.0 mi NNE 4.6 mph - N/A   Clear
5:53 AM 44.1 °F 40.1 °F 39.9 °F 85% 30.01 in 10.0 mi NNE 6.9 mph - N/A   Clear
6:53 AM 42.1 °F 37.7 °F 39.0 °F 89% 30.00 in 10.0 mi NNE 6.9 mph - N/A   Clear
7:53 AM 45.0 °F 41.2 °F 39.9 °F 82% 30.05 in 10.0 mi North 6.9 mph - N/A   Clear
8:53 AM 48.0 °F - 39.9 °F 74% 30.06 in 10.0 mi North 8.1 mph - N/A   Clear
9:53 AM 48.0 °F - 39.9 °F 74% 30.06 in 10.0 mi North 6.9 mph - N/A   Clear
10:53 AM 48.9 °F - 39.9 °F 71% 30.05 in 10.0 mi North 8.1 mph - N/A   Clear
11:53 AM 48.9 °F - 39.9 °F 71% 30.02 in 10.0 mi North 9.2 mph - N/A   Clear
12:53 PM 52.0 °F - 42.1 °F 69% 30.01 in 10.0 mi NNW 6.9 mph - N/A   Clear
1:53 PM 54.0 °F - 42.1 °F 64% 29.98 in 10.0 mi North 8.1 mph - N/A   Clear
2:53 PM 55.0 °F - 41.0 °F 59% 29.97 in 10.0 mi North - - N/A   Clear
3:53 PM 55.0 °F - 39.0 °F 55% 29.97 in 10.0 mi North 9.2 mph - N/A   Clear
4:53 PM 54.0 °F - 39.0 °F 57% 29.98 in 10.0 mi North 13.8 mph - N/A   Clear
5:53 PM 50.0 °F - 39.9 °F 68% 29.99 in 10.0 mi NNE 9.2 mph - N/A   Clear
6:53 PM 48.0 °F - 39.9 °F 74% 30.01 in 10.0 mi North 8.1 mph - N/A   Clear
7:53 PM 46.9 °F - 37.9 °F 71% 30.01 in 10.0 mi NE 6.9 mph - N/A   Clear
8:53 PM 45.0 °F 43.5 °F 39.0 °F 80% 30.02 in 10.0 mi East 3.5 mph - N/A   Clear
9:53 PM 41.0 °F - 37.9 °F 89% 30.03 in 10.0 mi Calm Calm - N/A   Clear
10:53 PM 41.0 °F - 39.9 °F 96% 30.02 in 9.0 mi Calm Calm - N/A   Clear
11:24 PM 39.2 °F - 39.2 °F 100% 30.00 in 1.8 mi Calm Calm - N/A   Clear
11:35 PM 39.2 °F - 37.4 °F 93% 30.00 in 3.0 mi Calm Calm - N/A   Clear
11:53 PM 39.0 °F - 39.0 °F 100% 30.03 in 9.0 mi Calm Calm - N/A   Clear